Cloud_Cover
49 39 86 37 82 5 8 5 5 0 0 0 0 0 0 0 0 0 0 0 0 0 0 5 5 0 20 100 100 100 100 100 100 100 100 100 100 100 100 100 99 100 100 100
22 92 12 6 24 2 0 0 2 2 0 1 0 0 0 0 0 0 0 0 0 57 5 5 19 0 0 26 100 100 100 100 100 100 100 100 100 100 100 100 100 100 99 100
65 6 4 0 5 5 5 5 5 7 5 0 0 0 0 0 0 0 0 0 0 0 22 36 6 72 81 75 100 100 100 100 100 100 100 100 100 100 100 100 100 100 100 100
84 50 5 5 5 5 1 5 5 5 4 4 0 3 0 0 0 0 0 0 0 0 2 43 98 16 82 96 100 100 100 100 100 100 100 100 100 100 100 100 100 100 100 100
100 26 5 5 5 22 1 3 5 5 5 5 0 5 0 0 0 0 0 0 0 0 0 47 100 100 13 34 95 100 100 100 100 100 100 100 100 100 100 100 100 100 100 100
100 100 100 9 5 31 0 3 5 5 5 5 3 1 0 0 0 0 0 0 0 0 0 0 17 100 72 3 82 100 100 100 100 100 100 100 100 100 100 100 100 100 100 100
100 100 100 4 6 48 5 2 0 4 2 0 0 3 0 3 0 0 0 0 0 0 0 0 0 6 12 84 100 100 100 100 100 100 100 100 100 100 100 100 100 100 100 100
100 100 100 100 100 100 6 72 17 0 1 1 0 14 0 0 2 2 0 0 0 0 0 0 0 0 0 4 100 100 100 100 100 100 100 100 100 100 100 100 100 100 100 100
100 100 100 100 100 100 100 100 4 39 86 55 0 0 0 0 0 5 0 0 0 0 0 0 0 0 5 5 5 99 100 100 100 100 100 100 100 100 100 100 100 100 100 100
100 100 100 100 100 100 100 100 1 3 1 1 0 0 0 0 0 5 5 1 0 0 0 0 0 0 5 5 5 5 100 100 100 100 100 100 100 100 100 100 100 100 100 100
100 100 100 100 100 100 100 99 95 4 4 0 13 0 0 0 0 3 5 5 1 0 0 0 0 2 5 5 5 22 100 100 100 100 100 100 100 100 100 100 100 100 100 100
100 100 100 100 100 100 100 100 49 5 12 40 16 10 0 0 0 0 5 50 5 0 0 0 0 0 5 5 5 5 5 99 100 100 100 100 100 100 100 100 100 100 100 100
100 100 100 100 100 100 77 58 87 5 5 64 16 0 0 0 0 0 0 5 64 8 1 0 0 2 5 5 5 5 5 6 98 100 100 100 100 100 100 100 100 100 100 100
100 100 100 100 100 100 97 100 100 6 41 24 8 0 0 0 0 0 0 0 5 45 5 5 40 2 5 5 5 5 5 5 5 27 100 100 100 100 100 100 100 100 100 100
100 100 100 100 100 100 100 54 100 93 24 17 42 3 0 0 0 0 0 0 0 4 5 5 90 43 13 52 5 5 5 5 5 6 77 100 100 100 100 100 100 100 100 100
100 100 100 100 100 100 100 99 91 100 100 20 83 1 0 0 0 0 0 0 0 0 3 5 5 6 5 79 6 5 6 5 5 5 83 100 100 100 100 100 100 100 100 100
100 100 100 100 100 100 100 100 100 100 100 62 100 37 0 0 0 0 0 0 0 0 0 0 7 16 5 5 5 5 5 5 5 62 100 100 100 100 100 100 100 100 100 100
100 100 100 100 100 100 100 100 100 100 100 100 100 100 6 2 1 1 0 0 0 0 0 0 0 8 99 39 5 5 5 5 88 73 65 20 6 9 81 100 99 100 100 100
100 100 100 100 100 100 100 100 100 100 100 100 100 100 98 2 6 20 5 0 0 0 0 0 0 4 11 92 84 5 5 5 5 5 5 5 5 5 5 40 66 55 100 100
100 100 100 100 100 100 100 100 100 100 100 100 100 100 100 100 23 5 3 2 0 2 0 0 0 0 5 8 99 78 9 5 5 5 5 5 5 5 5 5 5 5 5 99
100 100 100 100 100 100 100 100 100 100 100 100 100 100 100 100 95 5 20 5 5 5 4 0 0 1 3 4 27 66 100 86 5 5 5 6 5 5 5 5 5 5 6 7
100 100 100 100 100 100 100 100 100 100 100 100 100 100 100 5 5 60 79 86 20 0 45 5 3 5 1 5 15 99 57 97 55 5 8 26 15 7 8 5 28 17 5 7
100 100 100 100 100 100 100 100 100 100 100 100 100 100 100 31 77 95 100 99 99 64 1 5 5 5 5 5 5 54 96 99 100 98 66 96 98 44 20 7 35 76 63 79
100 100 100 100 100 100 100 100 100 100 100 100 100 100 100 35 100 100 100 100 100 100 5 1 5 5 0 5 28 100 70 99 100 100 98 98 100 100 89 35 7 12 65 78
100 100 100 100 100 100 100 100 100 92 91 100 100 100 100 93 100 100 100 100 100 100 61 5 5 0 0 3 10 99 57 96 100 100 100 100 100 100 100 54 35 22 5 20
100 100 100 100 100 100 100 100 100 100 94 100 100 100 100 100 100 100 100 100 100 100 100 84 6 5 4 5 5 33 50 23 76 100 100 100 100 100 100 95 42 100 100 88